• In Uzbekistan
  • List of Countries
  • For 7 days
  • Water Temperature
  • Satellite Maps
  • Weather Map
  • Weather Widgets
  • user-avatar
    Login

    Hourly Weather Gjirokaster

    Today, 27 June, Tuesday

    Time Temperature Precipitation Wind Pressure Humidity
    00:00 +14°C° 0 mm 1 mps 651 mmHg 85%
    01:00 +13°C° 0 mm 0 mps 651 mmHg 86%
    02:00 +12°C° 0 mm 0 mps 651 mmHg 87%
    03:00 +12°C° 0 mm 0 mps 651 mmHg 87%
    04:00 +12°C° 0 mm 0 mps 651 mmHg 88%
    05:00 +14°C° 0 mm 0 mps 651 mmHg 78%
    06:00 +17°C° 0 mm 0 mps 652 mmHg 68%
    07:00 +22°C° 0 mm 1 mps 653 mmHg 59%
    08:00 +23°C° 0 mm 1 mps 653 mmHg 53%
    09:00 +25°C° 0 mm 1 mps 654 mmHg 47%
    10:00 +26°C° 0 mm 2 mps 654 mmHg 42%
    11:00 +27°C° 0 mm 2 mps 654 mmHg 40%
    12:00 +27°C° 0 mm 3 mps 654 mmHg 37%
    13:00 +28°C° 0 mm 3 mps 654 mmHg 35%
    14:00 +27°C° 0 mm 3 mps 654 mmHg 37%
    15:00 +27°C° 0 mm 2 mps 653 mmHg 38%
    16:00 +26°C° 0 mm 2 mps 653 mmHg 40%
    17:00 +24°C° 0 mm 2 mps 652 mmHg 48%
    18:00 +20°C° 0 mm 2 mps 652 mmHg 57%
    19:00 +19°C° 0 mm 1 mps 651 mmHg 65%
    20:00 +18°C° 0 mm 1 mps 651 mmHg 69%
    21:00 +15°C° 0 mm 1 mps 651 mmHg 73%
    22:00 +14°C° 0 mm 1 mps 651 mmHg 76%
    23:00 +14°C° 0 mm 1 mps 651 mmHg 76%

    Tomorrow, 28 June, Wednesday

    Time Temperature Precipitation Wind Pressure Humidity
    00:00 +14°C° 0 mm 2 mps 651 mmHg 76%
    01:00 +14°C° 0 mm 2 mps 651 mmHg 76%
    02:00 +14°C° 0 mm 2 mps 651 mmHg 75%
    03:00 +14°C° 0 mm 2 mps 650 mmHg 74%
    04:00 +13°C° 0 mm 3 mps 650 mmHg 73%
    05:00 +16°C° 0 mm 3 mps 651 mmHg 65%
    06:00 +19°C° 0 mm 3 mps 651 mmHg 57%
    07:00 +21°C° 0 mm 3 mps 652 mmHg 49%
    08:00 +22°C° 0 mm 3 mps 652 mmHg 44%
    09:00 +25°C° 0 mm 3 mps 653 mmHg 40%
    10:00 +26°C° 0 mm 3 mps 653 mmHg 36%
    11:00 +27°C° 0 mm 3 mps 653 mmHg 35%
    12:00 +27°C° 0 mm 3 mps 653 mmHg 34%
    13:00 +28°C° 0 mm 3 mps 653 mmHg 33%
    14:00 +27°C° 0 mm 3 mps 653 mmHg 36%
    15:00 +27°C° 0 mm 3 mps 652 mmHg 38%
    16:00 +26°C° 0 mm 3 mps 652 mmHg 40%
    17:00 +24°C° 0 mm 2 mps 652 mmHg 49%
    18:00 +20°C° 0 mm 2 mps 651 mmHg 58%
    19:00 +18°C° 0 mm 2 mps 651 mmHg 67%
    20:00 +17°C° 0 mm 2 mps 651 mmHg 70%
    21:00 +16°C° 0 mm 2 mps 651 mmHg 72%
    22:00 +15°C° 0 mm 2 mps 651 mmHg 74%
    23:00 +15°C° 0 mm 2 mps 651 mmHg 74%

    Day after tomorrow, 29 June, Thursday

    Time Temperature Precipitation Wind Pressure Humidity
    00:00 +15°C° 0 mm 2 mps 650 mmHg 74%
    01:00 +15°C° 0 mm 2 mps 650 mmHg 74%
    02:00 +15°C° 0 mm 2 mps 650 mmHg 73%
    03:00 +15°C° 0 mm 2 mps 650 mmHg 71%
    04:00 +14°C° 0 mm 2 mps 650 mmHg 70%
    05:00 +17°C° 0 mm 3 mps 651 mmHg 61%
    06:00 +20°C° 0 mm 3 mps 652 mmHg 51%
    07:00 +24°C° 0 mm 3 mps 653 mmHg 42%
    08:00 +26°C° 0 mm 3 mps 653 mmHg 38%
    09:00 +28°C° 0 mm 4 mps 653 mmHg 33%
    10:00 +30°C° 0 mm 4 mps 654 mmHg 29%
    11:00 +30°C° 0 mm 4 mps 654 mmHg 28%
    12:00 +30°C° 0 mm 4 mps 654 mmHg 28%
    13:00 +32°C° 0 mm 5 mps 654 mmHg 27%
    14:00 +30°C° 0 mm 4 mps 654 mmHg 29%
    15:00 +29°C° 0 mm 4 mps 654 mmHg 30%
    16:00 +29°C° 0 mm 4 mps 653 mmHg 31%
    17:00 +26°C° 0 mm 3 mps 653 mmHg 41%
    18:00 +22°C° 0 mm 3 mps 652 mmHg 51%
    19:00 +19°C° 0 mm 2 mps 652 mmHg 61%
    20:00 +18°C° 0 mm 2 mps 652 mmHg 63%
    21:00 +17°C° 0 mm 2 mps 652 mmHg 66%
    22:00 +17°C° 0 mm 2 mps 652 mmHg 68%
    23:00 +16°C° 0 mm 2 mps 652 mmHg 66%

    30 June, Friday

    Time Temperature Precipitation Wind Pressure Humidity
    00:00 +16°C° 0 mm 2 mps 652 mmHg 64%
    01:00 +16°C° 0 mm 2 mps 652 mmHg 62%
    02:00 +16°C° 0 mm 2 mps 652 mmHg 60%
    03:00 +15°C° 0 mm 2 mps 652 mmHg 58%
    04:00 +15°C° 0 mm 2 mps 652 mmHg 56%
    05:00 +19°C° 0 mm 1 mps 653 mmHg 50%
    06:00 +22°C° 0 mm 1 mps 654 mmHg 44%
    07:00 +25°C° 0 mm 1 mps 655 mmHg 39%
    08:00 +27°C° 0 mm 1 mps 656 mmHg 35%
    09:00 +29°C° 0 mm 1 mps 656 mmHg 31%
    10:00 +31°C° 0 mm 1 mps 657 mmHg 27%
    11:00 +31°C° 0 mm 1 mps 657 mmHg 26%
    12:00 +32°C° 0 mm 2 mps 656 mmHg 25%
    13:00 +32°C° 0 mm 2 mps 656 mmHg 24%
    14:00 +32°C° 0 mm 2 mps 656 mmHg 26%
    15:00 +31°C° 0 mm 2 mps 656 mmHg 27%
    16:00 +31°C° 0 mm 2 mps 656 mmHg 29%
    17:00 +28°C° 0 mm 2 mps 655 mmHg 38%
    18:00 +25°C° 0 mm 2 mps 654 mmHg 47%
    19:00 +22°C° 0 mm 1 mps 654 mmHg 56%
    20:00 +21°C° 0 mm 1 mps 653 mmHg 57%
    21:00 +20°C° 0 mm 1 mps 653 mmHg 57%
    22:00 +19°C° 0 mm 1 mps 653 mmHg 58%
    23:00 +19°C° 0 mm 1 mps 653 mmHg 57%

    1 July, Saturday

    Time Temperature Precipitation Wind Pressure Humidity
    00:00 +19°C° 0 mm 1 mps 653 mmHg 56%
    01:00 +19°C° 0 mm 1 mps 652 mmHg 55%
    02:00 +19°C° 0 mm 1 mps 652 mmHg 54%
    03:00 +18°C° 0 mm 1 mps 652 mmHg 54%
    04:00 +18°C° 0 mm 1 mps 652 mmHg 54%
    05:00 +21°C° 0 mm 1 mps 653 mmHg 48%
    06:00 +24°C° 0 mm 1 mps 653 mmHg 42%
    07:00 +27°C° 0 mm 1 mps 654 mmHg 36%
    08:00 +29°C° 0 mm 1 mps 655 mmHg 32%
    09:00 +31°C° 0 mm 1 mps 655 mmHg 27%
    10:00 +34°C° 0 mm 2 mps 655 mmHg 22%
    11:00 +35°C° 0 mm 2 mps 655 mmHg 21%
    12:00 +35°C° 0 mm 2 mps 655 mmHg 20%
    13:00 +35°C° 0 mm 3 mps 655 mmHg 19%
    14:00 +35°C° 0 mm 3 mps 654 mmHg 20%
    15:00 +34°C° 0 mm 2 mps 654 mmHg 21%
    16:00 +34°C° 0 mm 2 mps 653 mmHg 21%
    17:00 +29°C° 0 mm 2 mps 653 mmHg 29%
    18:00 +26°C° 0 mm 2 mps 652 mmHg 38%
    19:00 +22°C° 0 mm 1 mps 651 mmHg 46%
    20:00 +21°C° 0 mm 1 mps 651 mmHg 46%
    21:00 +20°C° 0 mm 1 mps 651 mmHg 46%
    22:00 +19°C° 0 mm 1 mps 650 mmHg 47%
    23:00 +18°C° 0 mm 1 mps 650 mmHg 47%

    2 July, Sunday

    Time Temperature Precipitation Wind Pressure Humidity
    00:00 +18°C° 0 mm 1 mps 650 mmHg 48%
    01:00 +16°C° 0 mm 1 mps 649 mmHg 48%
    02:00 +16°C° 0 mm 1 mps 649 mmHg 51%
    03:00 +15°C° 0 mm 2 mps 649 mmHg 55%
    04:00 +15°C° 0 mm 2 mps 648 mmHg 58%
    05:00 +18°C° 0 mm 2 mps 649 mmHg 51%
    06:00 +21°C° 0 mm 2 mps 650 mmHg 44%
    07:00 +25°C° 0 mm 3 mps 651 mmHg 37%
    08:00 +27°C° 0 mm 3 mps 651 mmHg 34%
    09:00 +28°C° 0 mm 4 mps 651 mmHg 30%
    10:00 +30°C° 0 mm 5 mps 652 mmHg 27%
    11:00 +30°C° 0 mm 5 mps 651 mmHg 29%
    12:00 +29°C° 0 mm 6 mps 651 mmHg 31%
    13:00 +29°C° 0 mm 6 mps 651 mmHg 33%
    14:00 +28°C° 0 mm 6 mps 650 mmHg 37%
    15:00 +27°C° 0 mm 6 mps 650 mmHg 41%
    16:00 +26°C° 0 mm 6 mps 650 mmHg 45%
    17:00 +23°C° 0.1 mm 6 mps 649 mmHg 54%
    18:00 +21°C° 0.1 mm 6 mps 649 mmHg 63%
    19:00 +19°C° 0.1 mm 5 mps 649 mmHg 72%
    20:00 +16°C° 0 mm 5 mps 649 mmHg 77%
    21:00 +15°C° 0 mm 4 mps 649 mmHg 82%
    22:00 +14°C° 0 mm 4 mps 649 mmHg 87%
    23:00 +13°C° 0 mm 4 mps 648 mmHg 88%
    Show more